GW0774 Weather Reports


time (UTC)temp
F
wind
direction
speed
knots
gust
knots
rain 1hr
in
rain 24hr
in
rain mn
in
humidity
%
barometer
mb
20260831124548 40 0 0.0 1.7 0.00 0.00 0.00 90 1005.2
20260831124040 40 0 0.0 1.7 0.00 0.00 0.00 89 1005.2
20260831123539 41 127 0.9 1.7 0.00 0.00 0.00 87 1005.1
20260831123047 42 0 0.0 0.0 0.00 0.00 0.00 88 1005.1
20260831122539 42 230 0.0 0.9 0.00 0.00 0.00 89 1005.0
20260831122042 42 230 0.0 0.9 0.00 0.00 0.00 89 1004.9
20260831121558 41 0 0.0 0.0 0.00 0.00 0.00 86 1004.9
20260831121038 42 0 0.0 0.0 0.00 0.00 0.00 85 1004.8
20260831120538 43 0 0.0 0.9 0.00 0.00 0.00 87 1004.9
20260831120109 43 0 0.0 1.7 0.00 0.00 0.00 87 1004.6
20260831115539 43 230 0.0 2.6 0.00 0.00 0.00 86 1004.7
20260831115039 44 230 1.7 2.6 0.00 0.00 0.00 87 1004.5
20260831114602 44 230 0.9 1.7 0.00 0.00 0.00 86 1004.4
20260831114039 44 230 0.9 2.6 0.00 0.00 0.00 86 1004.4
20260831113540 44 232 0.9 2.6 0.00 0.00 0.00 85 1004.2
20260831113101 44 236 1.7 3.5 0.00 0.00 0.00 84 1004.2
20260831112539 45 249 2.6 3.5 0.00 0.00 0.00 85 1004.1
20260831112038 45 250 2.6 4.3 0.00 0.00 0.00 85 1004.0
20260831111556 45 250 3.5 4.3 0.00 0.00 0.00 85 1004.0
20260831111038 45 250 2.6 4.3 0.00 0.00 0.00 86 1004.0
20260831110540 45 242 2.6 3.5 0.00 0.00 0.00 86 1004.0
20260831110049 45 244 1.7 2.6 0.00 0.00 0.00 86 1004.0
20260831105540 45 244 1.7 2.6 0.00 0.00 0.00 85 1004.0
20260831105039 45 244 1.7 3.5 0.00 0.00 0.00 85 1003.9
20260831104606 45 244 1.7 3.5 0.00 0.00 0.00 85 1003.9
20260831104039 45 246 1.7 3.5 0.00 0.00 0.00 86 1003.9
20260831103538 45 220 1.7 2.6 0.00 0.00 0.00 86 1003.9
20260831103056 45 219 1.7 2.6 0.00 0.00 0.00 85 1003.8
20260831102538 46 219 2.6 3.5 0.00 0.00 0.00 84 1003.7
20260831102038 46 219 1.7 4.3 0.00 0.00 0.00 83 1003.8
20260831101603 46 219 2.6 4.3 0.00 0.00 0.00 82 1003.8
20260831101040 47 227 3.5 4.3 0.00 0.00 0.00 81 1003.7
20260831100538 47 227 3.5 4.3 0.00 0.00 0.00 80 1003.7
20260831100052 48 222 3.5 5.2 0.00 0.00 0.00 79 1003.5
20260831095535 49 229 3.5 6.1 0.00 0.00 0.00 78 1003.3
20260831095039 50 229 4.3 7.8 0.00 0.00 0.00 77 1003.2
20260831094558 51 228 5.2 7.8 0.00 0.00 0.00 75 1003.1
20260831094039 51 232 6.1 11.3 0.00 0.00 0.00 73 1003.0
20260831093540 52 238 6.1 11.3 0.00 0.00 0.00 71 1003.0
20260831093059 52 246 7.8 11.3 0.00 0.00 0.00 69 1002.9
20260831092539 52 249 7.0 10.4 0.00 0.00 0.00 71 1002.8
20260831092040 52 249 6.1 10.4 0.00 0.00 0.00 74 1002.7
20260831091553 52 245 7.0 10.4 0.00 0.00 0.00 75 1002.7
20260831091038 52 248 4.3 8.7 0.00 0.00 0.00 77 1002.7
20260831090539 52 258 5.2 11.3 0.00 0.00 0.00 76 1002.6
20260831090057 53 262 6.1 13.9 0.00 0.00 0.00 75 1002.6
20260831085539 52 267 7.0 13.9 0.00 0.00 0.00 77 1002.3
20260831085039 52 243 4.3 12.2 0.00 0.00 0.00 77 1002.4
20260831084557 53 248 5.2 12.2 0.00 0.00 0.00 77 1002.3
20260831084038 53 267 7.0 12.2 0.00 0.00 0.00 77 1002.3
20260831083538 53 294 5.2 13.0 0.00 0.00 0.00 77 1002.3
20260831083057 53 279 6.1 14.8 0.00 0.00 0.00 75 1002.1
20260831082538 53 265 7.8 14.8 0.00 0.00 0.00 74 1002.1
20260831082039 53 232 7.8 15.6 0.00 0.00 0.00 75 1001.9
20260831081604 54 277 8.7 15.6 0.00 0.00 0.00 73 1001.8
20260831081038 53 270 10.4 15.6 0.00 0.00 0.00 71 1001.6
20260831080539 54 276 8.7 17.4 0.00 0.00 0.00 71 1001.4
20260831080058 53 275 10.4 17.4 0.00 0.00 0.00 69 1001.4
20260831075539 54 254 10.4 20.9 0.00 0.00 0.00 68 1001.2
20260831075039 54 244 10.4 20.9 0.00 0.00 0.00 67 1001.4
20260831074559 54 316 11.3 20.9 0.00 0.00 0.00 71 1001.3
20260831074039 53 237 10.4 17.4 0.00 0.00 0.00 76 1001.3
20260831073539 53 257 8.7 17.4 0.00 0.00 0.00 78 1000.9
20260831073055 54 269 9.6 17.4 0.00 0.00 0.00 78 1000.6
20260831072539 53 247 9.6 23.5 0.00 0.00 0.00 77 1000.4
20260831072038 53 267 9.6 24.3 0.00 0.00 0.00 78 1000.5
20260831071551 53 250 10.4 24.3 0.00 0.00 0.00 81 1000.3
20260831071039 53 297 6.1 18.2 0.00 0.00 0.00 81 1000.3
20260831070539 53 267 10.4 18.2 0.00 0.00 0.00 80 1000.2
20260831070109 53 271 10.4 21.7 0.00 0.00 0.00 80 1000.2
20260831065541 53 288 12.2 21.7 0.00 0.00 0.00 80 1000.1
20260831065039 53 252 11.3 23.5 0.00 0.00 0.00 80 1000.2
20260831064552 53 294 13.9 23.5 0.00 0.00 0.00 80 1000.1
20260831064038 53 290 13.9 20.0 0.00 0.00 0.00 80 1000.1
20260831063539 53 273 13.9 23.5 0.00 0.00 0.00 80 1000.1
20260831063051 53 264 15.6 24.3 0.00 0.00 0.00 80 999.8
20260831062540 53 300 15.6 25.2 0.00 0.00 0.00 80 999.7
20260831062039 53 291 14.8 25.2 0.00 0.00 0.00 81 999.5
20260831061607 53 286 15.6 26.1 0.00 0.00 0.00 81 999.7
20260831061039 54 286 16.5 26.1 0.00 0.00 0.00 82 999.4
20260831060539 54 257 13.9 27.8 0.00 0.00 0.00 82 999.5
20260831060110 54 284 15.6 27.8 0.00 0.00 0.00 82 999.5
20260831055538 54 319 14.8 26.9 0.00 0.00 0.00 81 999.5
20260831055041 54 276 14.8 27.8 0.00 0.00 0.00 81 999.5
20260831054555 54 259 13.9 27.8 0.00 0.00 0.00 80 999.5
20260831054041 55 294 11.3 24.3 0.00 0.00 0.00 80 999.5
20260831053538 55 265 13.0 26.1 0.00 0.00 0.00 79 999.3
20260831053141 55 232 12.2 26.1 0.00 0.00 0.00 78 999.3
20260831052538 55 289 11.3 26.1 0.00 0.00 0.00 79 999.3
20260831052042 55 259 10.4 26.1 0.00 0.00 0.00 78 999.2
20260831051547 55 252 12.2 24.3 0.00 0.00 0.00 79 999.1
20260831051038 55 256 16.5 23.5 0.00 0.00 0.00 78 999.1
20260831050538 55 269 15.6 23.5 0.00 0.00 0.00 79 999.0
20260831050108 55 269 13.9 22.6 0.00 0.00 0.00 79 998.9
20260831045538 56 302 13.0 25.2 0.00 0.00 0.00 79 999.0
20260831045039 56 274 13.0 26.1 0.00 0.00 0.00 78 999.0
20260831044602 56 268 16.5 26.9 0.00 0.00 0.00 77 998.9
20260831044038 56 261 16.5 27.8 0.00 0.00 0.00 77 998.9
20260831043538 56 290 19.1 29.5 0.00 0.00 0.00 77 999.0
20260831043059 56 305 18.2 30.4 0.00 0.00 0.00 77 999.0
20260831042539 56 280 20.0 33.0 0.00 0.00 0.00 77 998.9
20260831042036 56 290 17.4 33.0 0.00 0.00 0.00 77 999.0
20260831041610 56 293 18.2 29.5 0.00 0.00 0.00 77 999.1
20260831041036 56 301 17.4 29.5 0.00 0.00 0.00 77 999.0
20260831040536 56 287 18.2 29.5 0.00 0.00 0.00 77 999.0
20260831040058 56 255 15.6 31.3 0.00 0.00 0.00 76 999.2
20260831035537 57 291 17.4 31.3 0.00 0.00 0.00 78 999.2
20260831035037 57 271 18.2 31.3 0.00 0.00 0.00 78 999.1
20260831034559 57 279 14.8 29.5 0.00 0.00 0.00 77 999.1
20260831034042 56 288 14.8 26.1 0.00 0.00 0.00 78 999.0
20260831033539 56 250 13.9 26.1 0.00 0.00 0.00 79 999.1
20260831033110 56 271 13.0 26.1 0.00 0.00 0.00 79 999.0
20260831032537 56 261 14.8 27.8 0.00 0.00 0.00 80 999.2
20260831032036 56 246 13.0 29.5 0.00 0.00 0.00 80 999.4
20260831031555 57 266 13.0 29.5 0.00 0.00 0.00 79 999.4
20260831031036 57 276 13.0 33.9 0.00 0.00 0.00 79 999.2
20260831030536 57 263 14.8 33.9 0.00 0.00 0.00 77 999.1
20260831030103 57 264 15.6 33.9 0.00 0.00 0.00 78 999.1
20260831025540 58 248 15.6 31.3 0.00 0.00 0.00 78 999.2
20260831025037 58 265 15.6 30.4 0.00 0.00 0.00 78 999.1
20260831024559 58 265 14.8 26.9 0.00 0.00 0.00 77 998.9
20260831024036 57 299 14.8 28.7 0.00 0.00 0.00 78 999.0
20260831023536 58 283 13.9 28.7 0.00 0.00 0.00 78 998.9
20260831023103 58 277 15.6 29.5 0.00 0.00 0.00 78 998.9
20260831022536 57 268 11.3 29.5 0.00 0.00 0.00 80 998.9
20260831022036 58 282 12.2 28.7 0.00 0.00 0.00 78 999.1
20260831021553 58 272 14.8 28.7 0.00 0.00 0.00 77 999.1
20260831021044 58 246 13.9 33.0 0.00 0.00 0.00 77 999.2
20260831020541 58 286 16.5 33.0 0.00 0.00 0.00 77 999.1
20260831020106 58 280 16.5 33.0 0.00 0.00 0.00 76 999.1
20260831015536 57 269 15.6 33.0 0.00 0.00 0.00 79 999.1
20260831015036 57 291 14.8 26.9 0.00 0.00 0.00 79 999.3
20260831014547 57 258 13.0 33.0 0.00 0.00 0.00 79 999.4
20260831014036 58 302 15.6 33.0 0.00 0.00 0.00 77 999.4
20260831013536 58 293 13.9 27.8 0.00 0.00 0.00 79 999.4
20260831013059 58 250 13.9 32.2 0.00 0.00 0.00 78 999.7
20260831012539 58 256 16.5 32.2 0.00 0.00 0.00 76 999.6
20260831012040 58 269 16.5 30.4 0.00 0.00 0.00 78 999.7
20260831011550 58 261 13.9 32.2 0.00 0.00 0.00 80 999.6
20260831011039 58 289 15.6 34.8 0.00 0.00 0.00 79 999.7
20260831010539 58 297 18.2 34.8 0.00 0.00 0.00 79 999.5
20260831010049 58 230 13.9 26.1 0.00 0.00 0.00 78 999.6
20260831005536 58 306 13.9 31.3 0.00 0.00 0.00 78 999.6
20260831005040 57 248 16.5 31.3 0.00 0.00 0.00 78 999.6
20260831004600 57 248 13.9 30.4 0.00 0.00 0.00 78 999.6
20260831004036 57 294 14.8 30.4 0.00 0.00 0.00 77 999.8
20260831003539 58 254 14.8 30.4 0.00 0.00 0.00 78 1000.0
20260831003056 58 279 13.0 30.4 0.00 0.00 0.00 78 999.9
20260831002539 58 278 16.5 33.0 0.00 0.00 0.00 78 999.9
20260831002039 58 242 13.0 33.0 0.00 0.00 0.00 78 1000.0
20260831001559 57 284 21.7 33.9 0.00 0.00 0.00 79 999.8
20260831001039 57 300 13.9 33.9 0.00 0.00 0.00 78 999.8
20260831000538 57 307 17.4 33.9 0.00 0.00 0.00 77 999.9
20260831000054 58 261 14.8 41.7 0.00 0.00 0.00 76 999.9
20260830235540 58 259 24.3 41.7 0.00 0.00 0.00 75 999.8
20260830235039 58 263 16.5 31.3 0.00 0.00 0.00 79 1000.0
20260830234549 58 18 17.4 34.8 0.00 0.00 0.00 78 999.9
20260830234039 58 259 20.9 34.8 0.00 0.00 0.00 78 999.6
20260830233542 58 302 20.9 34.8 0.00 0.00 0.00 78 999.8
20260830233047 58 288 12.2 28.7 0.00 0.00 0.00 79 999.9
20260830232539 58 314 15.6 28.7 0.00 0.00 0.00 78 1000.1
20260830232038 58 300 16.5 30.4 0.00 0.00 0.00 77 1000.0
20260830231558 58 296 15.6 37.4 0.00 0.00 0.00 77 1000.0
20260830231036 59 254 20.9 37.4 0.00 0.00 0.00 75 1000.0
20260830230536 59 297 13.0 29.5 0.00 0.00 0.00 78 999.8
20260830230052 58 290 12.2 35.6 0.00 0.00 0.00 77 1000.2
20260830225540 58 250 16.5 35.6 0.00 0.00 0.00 77 1000.2
20260830225040 58 288 18.2 29.5 0.00 0.00 0.00 78 1000.3
20260830224548 57 267 13.0 26.9 0.00 0.00 0.00 81 1000.6
20260830224040 57 284 12.2 25.2 0.00 0.00 0.00 81 1000.5
20260830223540 57 272 14.8 26.1 0.00 0.00 0.00 81 1000.6
20260830223056 57 254 13.0 26.1 0.00 0.00 0.00 82 1000.8
20260830222539 56 271 15.6 26.1 0.00 0.00 0.00 82 1000.8
20260830222036 56 298 14.8 26.1 0.00 0.00 0.00 83 1000.8
20260830221555 56 292 13.9 28.7 0.00 0.00 0.00 81 1000.9
20260830221040 56 262 13.0 28.7 0.00 0.00 0.00 80 1001.0
20260830220540 56 307 13.9 32.2 0.00 0.00 0.00 81 1000.8
20260830220052 56 247 14.8 33.9 0.00 0.00 0.00 81 1000.8
20260830215539 56 285 17.4 33.9 0.00 0.00 0.00 81 1000.4
20260830215043 56 295 16.5 30.4 0.00 0.00 0.00 80 1000.1
20260830214557 57 251 16.5 30.4 0.00 0.00 0.00 81 1000.0
20260830214041 57 252 13.9 29.5 0.00 0.00 0.00 83 1000.2
20260830213540 57 267 19.1 29.5 0.00 0.00 0.00 82 1000.2
20260830213049 56 266 14.8 30.4 0.00 0.00 0.00 82 1000.2
20260830212540 56 282 17.4 31.3 0.00 0.00 0.00 81 1000.4
20260830212037 56 318 15.6 31.3 0.00 0.00 0.00 82 1000.2
20260830211552 56 236 16.5 27.8 0.00 0.00 0.00 82 1000.5
20260830211040 56 269 16.5 28.7 0.00 0.00 0.00 84 1000.3
20260830210540 55 320 15.6 28.7 0.00 0.00 0.00 84 1000.0
20260830205536 55 273 16.5 28.7 0.00 0.00 0.00 87 1000.1
20260830205042 54 273 18.2 35.6 0.00 0.00 0.00 87 1000.0
20260830204555 55 245 19.1 35.6 0.00 0.00 0.00 85 999.9
20260830204039 56 311 17.4 27.8 0.00 0.00 0.00 85 999.8
20260830203541 55 262 16.5 30.4 0.00 0.00 0.00 84 999.4
20260830203052 55 295 17.4 30.4 0.00 0.00 0.00 85 999.7
20260830202541 55 265 19.1 32.2 0.00 0.00 0.00 87 999.9
20260830202040 54 250 18.2 32.2 0.00 0.00 0.00 88 1000.2
20260830201607 54 273 13.9 24.3 0.00 0.00 0.00 89 1000.5
20260830201039 55 292 13.9 24.3 0.00 0.00 0.00 86 1000.6
20260830200539 55 278 14.8 28.7 0.00 0.00 0.00 84 1000.8
20260830200100 55 306 14.8 28.7 0.00 0.00 0.00 83 1000.8
20260830195536 55 263 14.8 25.2 0.00 0.00 0.00 84 1000.7
20260830195036 55 268 9.6 20.9 0.00 0.00 0.00 84 1001.0
20260830194601 55 277 11.3 25.2 0.00 0.00 0.00 83 1001.1
20260830194040 55 248 11.3 25.2 0.00 0.00 0.00 80 1001.2
20260830193543 55 239 12.2 25.2 0.00 0.00 0.00 80 1001.4
20260830193049 55 232 10.4 20.9 0.00 0.00 0.00 81 1001.4
20260830192536 55 240 11.3 20.9 0.00 0.00 0.00 81 1001.3
20260830192040 55 284 11.3 18.2 0.00 0.00 0.00 81 1001.0
20260830191601 54 290 9.6 20.0 0.00 0.00 0.00 82 1001.0
20260830191040 54 290 10.4 21.7 0.00 0.00 0.00 82 1000.9
20260830190536 54 288 12.2 21.7 0.00 0.00 0.00 81 1000.5
20260830190112 54 252 13.0 21.7 0.00 0.00 0.00 81 1000.4
20260830185541 54 266 9.6 19.1 0.00 0.00 0.00 81 1000.5
20260830185040 54 275 10.4 19.1 0.00 0.00 0.00 81 1000.5
20260830184559 54 275 11.3 22.6 0.00 0.00 0.00 80 1000.6
20260830184040 54 292 12.2 22.6 0.00 0.00 0.00 81 1000.3
20260830183539 54 272 9.6 22.6 0.00 0.00 0.00 82 1000.3
20260830183049 54 244 13.0 22.6 0.00 0.00 0.00 81 1000.3
20260830182544 54 252 12.2 25.2 0.00 0.00 0.00 81 1000.2
20260830182044 54 298 12.2 25.2 0.00 0.00 0.00 81 1000.3
20260830181559 53 236 10.4 20.9 0.00 0.00 0.00 82 1000.4
20260830181040 53 278 10.4 20.9 0.00 0.00 0.00 82 1000.3
20260830180543 53 242 11.3 20.9 0.00 0.00 0.00 82 1000.4
20260830180105 53 305 12.2 22.6 0.00 0.00 0.00 82 1000.4
20260830175540 53 248 11.3 23.5 0.00 0.00 0.00 82 1000.6
20260830175040 53 240 11.3 23.5 0.00 0.00 0.00 83 1000.5
20260830174554 53 278 10.4 19.1 0.00 0.00 0.00 83 1000.4
20260830174043 53 257 11.3 19.1 0.00 0.00 0.00 82 1000.5
20260830173543 53 254 10.4 18.2 0.00 0.00 0.00 82 1000.5
20260830173117 54 277 10.4 20.0 0.00 0.00 0.00 82 1000.3
20260830172540 53 264 10.4 20.0 0.00 0.00 0.00 82 1000.2
20260830172039 53 263 12.2 20.0 0.00 0.00 0.00 82 1000.0
20260830171607 53 300 8.7 21.7 0.00 0.00 0.00 82 1000.1
20260830171039 53 271 12.2 22.6 0.00 0.00 0.00 81 999.7
20260830170540 53 236 10.4 23.5 0.00 0.00 0.00 81 999.4
20260830170053 53 294 12.2 23.5 0.00 0.00 0.00 81 999.5
20260830165539 53 256 9.6 22.6 0.00 0.00 0.00 82 999.6
20260830165039 54 244 7.8 20.0 0.00 0.00 0.00 81 999.6
20260830164557 54 263 9.6 20.9 0.00 0.00 0.00 80 999.9
20260830164039 54 257 10.4 22.6 0.00 0.00 0.00 80 1000.1
20260830163540 54 295 11.3 22.6 0.00 0.00 0.00 79 1000.3
20260830163053 54 247 11.3 20.0 0.00 0.00 0.00 79 1000.1
20260830162539 54 250 12.2 20.0 0.00 0.00 0.00 79 1000.1
20260830162039 54 233 11.3 22.6 0.00 0.00 0.00 79 1000.2
20260830161602 54 259 12.2 23.5 0.00 0.00 0.00 78 1000.0
20260830161039 54 245 13.0 24.3 0.00 0.00 0.00 79 1000.1
20260830160539 54 241 12.2 24.3 0.00 0.00 0.00 80 1000.0
20260830160107 54 288 8.7 18.2 0.00 0.00 0.00 81 999.8
20260830155539 54 280 9.6 18.2 0.00 0.00 0.00 81 1000.0
20260830155043 54 281 10.4 20.9 0.00 0.00 0.00 80 1000.0
20260830154556 53 258 12.2 20.9 0.00 0.00 0.00 80 1000.1
20260830154040 53 254 11.3 20.0 0.00 0.00 0.00 81 1000.1
20260830153539 53 225 10.4 24.3 0.00 0.00 0.00 82 1000.0
20260830153055 53 264 12.2 25.2 0.00 0.00 0.00 82 999.9
20260830152539 53 265 10.4 25.2 0.00 0.00 0.00 83 999.9
20260830152040 53 292 12.2 20.9 0.00 0.00 0.00 83 999.9
20260830151602 53 262 12.2 20.9 0.00 0.00 0.00 82 999.8
20260830151040 53 241 12.2 20.9 0.00 0.00 0.00 82 999.7
20260830150540 53 248 12.2 20.9 0.00 0.00 0.00 82 999.8
20260830150104 53 271 9.6 21.7 0.00 0.00 0.00 82 999.8
20260830145539 53 246 11.3 21.7 0.00 0.00 0.00 83 999.8
20260830145044 53 252 9.6 18.2 0.00 0.00 0.00 83 999.7
20260830144600 53 264 9.6 18.2 0.00 0.00 0.00 84 999.6
20260830144040 53 295 10.4 18.2 0.00 0.00 0.00 83 999.6
20260830143540 53 245 10.4 17.4 0.00 0.00 0.00 84 999.6
20260830143051 53 246 8.7 15.6 0.00 0.00 0.00 84 999.9
20260830142542 53 249 8.7 16.5 0.00 0.00 0.00 85 999.8
20260830142039 53 247 8.7 16.5 0.00 0.00 0.00 84 1000.0
20260830141558 53 344 9.6 16.5 0.00 0.00 0.00 85 1000.1
20260830141039 53 323 8.7 16.5 0.00 0.00 0.00 84 1000.1
20260830140538 53 248 7.8 18.2 0.00 0.00 0.00 84 1000.2
20260830140106 53 296 10.4 18.2 0.00 0.00 0.00 84 1000.2
20260830135538 53 247 8.7 18.2 0.00 0.00 0.00 84 1000.2
20260830135038 53 294 11.3 18.2 0.00 0.00 0.00 84 1000.2
20260830134559 53 285 8.7 17.4 0.00 0.00 0.00 85 1000.2
20260830134037 53 247 10.4 16.5 0.00 0.00 0.00 85 1000.2
20260830133539 53 242 7.8 16.5 0.00 0.00 0.00 85 1000.2
20260830133051 52 293 7.8 13.9 0.00 0.00 0.00 85 1000.2
20260830132538 52 241 6.1 11.3 0.00 0.00 0.00 87 1000.3
20260830132038 52 267 5.2 10.4 0.00 0.00 0.00 88 1000.2
20260830131602 52 240 5.2 10.4 0.00 0.00 0.00 88 1000.3
20260830131039 52 248 4.3 9.6 0.00 0.00 0.00 87 1000.3
20260830130539 52 253 4.3 10.4 0.00 0.00 0.00 86 1000.3
20260830125538 52 263 7.0 12.2 0.00 0.00 0.00 85 1000.3
20260830125038 53 242 6.1 12.2 0.00 0.00 0.00 85 1000.3